GW1914 Weather Reports


Display with metric or nautical units.
time (UTC)temp
F
wind
direction
speed
MPH
gust
MPH
rain 1hr
in
rain 24hr
in
rain mn
in
humidity
%
barometer
mb
20260508031018 66 212 0.0 3.0 0.00 0.00 0.00 53 1015.2
20260508030528 66 205 1.0 3.0 0.00 0.00 0.00 53 1015.1
20260508030025 66 248 0.0 3.0 0.00 0.00 0.00 53 1015.0
20260508025532 66 256 1.0 4.0 0.00 0.00 0.00 52 1014.9
20260508025022 66 253 1.0 7.0 0.00 0.00 0.00 55 1014.9
20260508024531 67 194 4.0 8.0 0.00 0.00 0.00 52 1014.8
20260508024027 67 191 5.0 8.0 0.00 0.00 0.00 51 1014.8
20260508023521 67 209 4.0 6.0 0.00 0.00 0.00 51 1014.7
20260508023033 67 205 3.0 6.0 0.00 0.00 0.00 52 1014.7
20260508022526 68 207 3.0 7.0 0.00 0.00 0.00 51 1014.7
20260508022036 68 211 4.0 8.0 0.00 0.00 0.00 48 1014.6
20260508021531 68 183 6.0 8.0 0.00 0.00 0.00 49 1014.6
20260508021022 68 198 6.0 9.0 0.00 0.00 0.00 49 1014.7
20260508020534 68 200 6.0 9.0 0.00 0.00 0.00 48 1014.7
20260508020029 68 181 6.0 10.0 0.00 0.00 0.00 50 1014.7
20260508015537 68 182 6.0 9.0 0.00 0.00 0.00 48 1014.7
20260508015026 68 181 4.0 6.0 0.00 0.00 0.00 49 1014.8
20260508014528 68 216 3.0 6.0 0.00 0.00 0.00 49 1014.8
20260508014035 69 211 2.0 6.0 0.00 0.00 0.00 49 1014.8
20260508013522 69 211 2.0 5.0 0.00 0.00 0.00 49 1014.8
20260508013042 70 218 1.0 5.0 0.00 0.00 0.00 49 1014.9
20260508012528 69 175 0.0 2.0 0.00 0.00 0.00 49 1014.9
20260508012022 69 197 0.0 2.0 0.00 0.00 0.00 51 1014.8
20260508011538 69 179 0.0 3.0 0.00 0.00 0.00 51 1015.1
20260508011028 69 192 1.0 3.0 0.00 0.00 0.00 50 1015.1
20260508010536 69 171 0.0 1.0 0.00 0.00 0.00 51 1015.0
20260508010035 70 173 0.0 1.0 0.00 0.00 0.00 49 1015.1
20260508005523 69 201 0.0 2.0 0.00 0.00 0.00 49 1015.2
20260508005032 69 190 0.0 3.0 0.00 0.00 0.00 51 1015.1
20260508004527 70 231 0.0 5.0 0.00 0.00 0.00 49 1015.1
20260508004035 70 132 1.0 4.0 0.00 0.00 0.00 48 1015.2
20260508003528 69 187 0.0 3.0 0.00 0.00 0.00 49 1015.4
20260508003023 69 140 0.0 1.0 0.00 0.00 0.00 50 1015.4
20260508002532 69 273 0.0 2.0 0.00 0.00 0.00 52 1015.5
20260508002019 68 218 0.0 2.0 0.00 0.00 0.00 52 1015.4
20260508001536 68 159 0.0 4.0 0.00 0.00 0.00 54 1015.5
20260508001032 68 200 1.0 4.0 0.00 0.00 0.00 51 1015.4
20260508000541 68 48 1.0 3.0 0.00 0.00 0.00 52 1015.4
20260508000034 68 17 0.0 4.0 0.00 0.00 0.00 51 1015.4
20260507235522 67 57 1.0 4.0 0.00 0.00 0.00 53 1015.3
20260507235035 67 34 1.0 4.0 0.00 0.00 0.00 54 1015.3
20260507234530 68 123 0.0 4.0 0.00 0.00 0.00 53 1015.5
20260507234038 68 235 1.0 4.0 0.00 0.00 0.00 54 1015.5
20260507233527 68 5 1.0 4.0 0.00 0.00 0.00 52 1015.5
20260507233036 68 26 1.0 6.0 0.00 0.00 0.00 51 1015.6
20260507232532 69 86 1.0 6.0 0.00 0.00 0.00 51 1015.6
20260507232021 69 252 1.0 4.0 0.00 0.00 0.00 51 1015.6
20260507231539 70 137 2.0 4.0 0.00 0.00 0.00 47 1015.7
20260507231029 70 191 0.0 3.0 0.00 0.00 0.00 49 1015.7
20260507230536 70 347 0.0 9.0 0.00 0.00 0.00 50 1015.6
20260507230031 70 87 1.0 9.0 0.00 0.00 0.00 47 1015.6
20260507225524 70 48 3.0 5.0 0.00 0.00 0.00 46 1015.8
20260507225032 69 80 1.0 5.0 0.00 0.00 0.00 51 1015.8
20260507224539 68 211 1.0 4.0 0.00 0.00 0.00 53 1015.8
20260507224018 67 325 0.0 5.0 0.00 0.00 0.00 55 1015.9
20260507223528 66 261 1.0 7.0 0.00 0.00 0.00 53 1015.8
20260507223023 67 160 2.0 7.0 0.00 0.00 0.00 52 1016.0
20260507222536 66 191 1.0 3.0 0.00 0.00 0.00 56 1016.0
20260507222022 67 263 1.0 5.0 0.00 0.00 0.00 54 1016.1
20260507221523 67 103 1.0 5.0 0.00 0.00 0.00 54 1016.1
20260507221030 66 240 1.0 5.0 0.00 0.00 0.00 56 1016.1
20260507220540 66 27 1.0 4.0 0.00 0.00 0.00 55 1016.1
20260507220033 66 346 1.0 6.0 0.00 0.00 0.00 56 1016.1
20260507215523 66 165 1.0 6.0 0.00 0.00 0.00 55 1016.1
20260507215034 67 75 2.0 7.0 0.00 0.00 0.00 54 1016.2
20260507214536 66 217 2.0 6.0 0.00 0.00 0.00 56 1016.2
20260507214023 67 360 2.0 5.0 0.00 0.00 0.00 53 1016.2
20260507213533 68 44 2.0 5.0 0.00 0.00 0.00 54 1016.3
20260507213029 68 258 2.0 5.0 0.00 0.00 0.00 53 1016.4
20260507212541 68 99 2.0 9.0 0.00 0.00 0.00 53 1016.4
20260507212026 67 69 2.0 9.0 0.00 0.00 0.00 54 1016.5
20260507211524 68 301 2.0 4.0 0.00 0.00 0.00 54 1016.5
20260507211033 68 15 1.0 8.0 0.00 0.00 0.00 53 1016.4
20260507210520 68 270 2.0 8.0 0.00 0.00 0.00 50 1016.6
20260507210019 68 114 2.0 8.0 0.00 0.00 0.00 53 1016.5
20260507205527 67 189 2.0 12.0 0.00 0.00 0.00 53 1016.6
20260507205018 67 360 2.0 12.0 0.00 0.00 0.00 54 1016.6
20260507204534 67 188 3.0 8.0 0.00 0.00 0.00 55 1016.7
20260507204029 66 320 2.0 9.0 0.00 0.00 0.00 57 1016.6
20260507203534 65 18 3.0 9.0 0.00 0.00 0.00 59 1016.5
20260507203039 65 248 2.0 8.0 0.00 0.00 0.00 56 1016.7
20260507202519 66 5 2.0 5.0 0.00 0.00 0.00 56 1016.7
20260507202030 66 346 2.0 7.0 0.00 0.00 0.00 56 1016.8
20260507201529 65 188 2.0 8.0 0.00 0.00 0.00 57 1016.8
20260507201035 65 250 2.0 8.0 0.00 0.00 0.00 56 1016.7
20260507200525 65 24 2.0 6.0 0.00 0.00 0.00 56 1016.7
20260507200021 65 44 2.0 7.0 0.00 0.00 0.00 56 1016.8
20260507195532 65 5 2.0 6.0 0.00 0.00 0.00 56 1016.6
20260507195021 65 133 2.0 7.0 0.00 0.00 0.00 55 1016.8
20260507194521 65 314 2.0 6.0 0.00 0.00 0.00 58 1016.8
20260507194029 65 163 2.0 6.0 0.00 0.00 0.00 56 1016.7
20260507193521 64 205 2.0 6.0 0.00 0.00 0.00 57 1016.7
20260507193019 64 103 2.0 6.0 0.00 0.00 0.00 56 1016.8
20260507192529 65 63 2.0 9.0 0.00 0.00 0.00 54 1016.7
20260507192039 65 73 3.0 9.0 0.00 0.00 0.00 55 1016.6
20260507191535 65 355 1.0 12.0 0.00 0.00 0.00 54 1016.7
20260507191027 64 53 2.0 12.0 0.00 0.00 0.00 54 1016.7
20260507190538 64 166 5.0 12.0 0.00 0.00 0.00 53 1016.8
20260507190030 64 210 6.0 10.0 0.00 0.00 0.00 56 1016.9
20260507185541 64 203 2.0 5.0 0.00 0.00 0.00 55 1017.0
20260507185025 63 215 2.0 8.0 0.00 0.00 0.00 57 1017.0
20260507184526 63 18 2.0 8.0 0.00 0.00 0.00 56 1017.1
20260507184037 63 31 2.0 8.0 0.00 0.00 0.00 59 1017.1
20260507183524 63 186 2.0 6.0 0.00 0.00 0.00 56 1017.1
20260507183022 63 86 2.0 5.0 0.00 0.00 0.00 60 1017.2
20260507182530 62 28 2.0 4.0 0.00 0.00 0.00 57 1017.2
20260507182023 62 355 2.0 5.0 0.00 0.00 0.00 58 1017.2
20260507181524 62 340 2.0 7.0 0.00 0.00 0.00 60 1017.3
20260507181028 62 122 2.0 7.0 0.00 0.00 0.00 59 1017.3
20260507180542 62 202 2.0 9.0 0.00 0.00 0.00 62 1017.4
20260507180038 62 329 2.0 9.0 0.00 0.00 0.00 60 1017.5
20260507175520 62 34 2.0 7.0 0.00 0.00 0.00 60 1017.4
20260507175031 61 63 2.0 7.0 0.00 0.00 0.00 62 1017.5
20260507174528 61 347 2.0 5.0 0.00 0.00 0.00 60 1017.5
20260507174036 61 332 2.0 5.0 0.00 0.00 0.00 62 1017.4
20260507173527 61 292 2.0 6.0 0.00 0.00 0.00 61 1017.5
20260507173030 61 13 2.0 8.0 0.00 0.00 0.00 63 1017.4
20260507172531 61 29 2.0 8.0 0.00 0.00 0.00 62 1017.5
20260507172020 60 331 2.0 8.0 0.00 0.00 0.00 62 1017.5
20260507171538 60 16 2.0 6.0 0.00 0.00 0.00 63 1017.5
20260507171033 60 90 2.0 7.0 0.00 0.00 0.00 62 1017.4
20260507170520 61 25 2.0 7.0 0.00 0.00 0.00 61 1017.4
20260507170039 60 270 2.0 6.0 0.00 0.00 0.00 61 1017.5
20260507165527 60 60 2.0 6.0 0.00 0.00 0.00 61 1017.5
20260507165038 60 225 2.0 6.0 0.00 0.00 0.00 62 1017.4
20260507164536 60 43 2.0 7.0 0.00 0.00 0.00 64 1017.4
20260507164022 59 305 2.0 7.0 0.00 0.00 0.00 64 1017.3
20260507163531 59 40 2.0 8.0 0.00 0.00 0.00 64 1017.2
20260507163029 59 336 2.0 8.0 0.00 0.00 0.00 64 1017.3
20260507162536 58 102 1.0 8.0 0.00 0.00 0.00 64 1017.3
20260507162026 58 14 2.0 8.0 0.00 0.00 0.00 65 1017.3
20260507161525 58 59 2.0 5.0 0.00 0.00 0.00 65 1017.4
20260507161032 58 94 2.0 6.0 0.00 0.00 0.00 67 1017.4
20260507160528 57 146 2.0 6.0 0.00 0.00 0.00 66 1017.5
20260507160023 57 355 2.0 6.0 0.00 0.00 0.00 68 1017.5
20260507155533 57 28 2.0 6.0 0.00 0.00 0.00 68 1017.4
20260507155022 57 178 2.0 7.0 0.00 0.00 0.00 66 1017.6
20260507154547 57 355 2.0 7.0 0.00 0.00 0.00 67 1017.5
20260507154026 57 55 1.0 4.0 0.00 0.00 0.00 66 1017.8
20260507153537 57 36 2.0 4.0 0.00 0.00 0.00 67 1017.8
20260507153035 56 349 1.0 6.0 0.00 0.00 0.00 68 1017.8
20260507152522 56 28 2.0 6.0 0.00 0.00 0.00 69 1017.7
20260507152034 56 242 2.0 5.0 0.00 0.00 0.00 68 1017.5
20260507151531 56 5 2.0 6.0 0.00 0.00 0.00 69 1017.4
20260507151019 56 5 2.0 7.0 0.00 0.00 0.00 69 1017.4
20260507150531 56 26 1.0 5.0 0.00 0.00 0.00 69 1017.3
20260507150028 56 56 1.0 6.0 0.00 0.00 0.00 70 1017.3
20260507145535 56 53 2.0 7.0 0.00 0.00 0.00 70 1017.2
20260507145027 56 255 3.0 8.0 0.00 0.00 0.00 70 1017.2
20260507144528 55 9 2.0 8.0 0.00 0.00 0.00 72 1017.1
20260507144033 55 69 2.0 7.0 0.00 0.00 0.00 71 1017.2
20260507143521 55 60 3.0 7.0 0.00 0.00 0.00 71 1017.1
20260507143038 55 56 2.0 6.0 0.00 0.00 0.00 73 1017.1
20260507142528 55 39 3.0 7.0 0.00 0.00 0.00 72 1016.8
20260507142035 55 106 2.0 7.0 0.00 0.00 0.00 75 1016.9
20260507141532 54 360 2.0 8.0 0.00 0.00 0.00 75 1016.7
20260507141023 55 17 2.0 6.0 0.00 0.00 0.00 74 1016.8
20260507140532 54 20 2.0 6.0 0.00 0.00 0.00 75 1016.8
20260507140029 54 33 2.0 6.0 0.00 0.00 0.00 74 1016.8
20260507135536 54 355 2.0 6.0 0.00 0.00 0.00 75 1016.7
20260507135025 54 360 2.0 7.0 0.00 0.00 0.00 75 1016.6
20260507134526 54 26 2.0 7.0 0.00 0.00 0.00 75 1016.5
20260507134035 53 254 2.0 5.0 0.00 0.00 0.00 76 1016.4
20260507133525 53 330 1.0 4.0 0.00 0.00 0.00 76 1016.3
20260507133023 53 37 1.0 4.0 0.00 0.00 0.00 76 1016.5
20260507132533 53 337 1.0 4.0 0.00 0.00 0.00 76 1016.4
20260507132019 53 37 1.0 5.0 0.00 0.00 0.00 76 1016.4
20260507131548 53 11 2.0 7.0 0.00 0.00 0.00 76 1016.3
20260507131028 53 331 1.0 7.0 0.00 0.00 0.00 76 1016.1
20260507130535 53 5 2.0 6.0 0.00 0.00 0.00 76 1016.1
20260507130038 53 279 2.0 7.0 0.00 0.00 0.00 75 1016.2
20260507125522 53 9 2.0 7.0 0.00 0.00 0.00 76 1016.1
20260507125030 53 5 1.0 7.0 0.00 0.00 0.00 76 1016.2
20260507124531 53 59 2.0 8.0 0.00 0.00 0.00 76 1016.1
20260507124033 53 5 2.0 10.0 0.00 0.00 0.00 76 1015.9
20260507123529 53 104 2.0 10.0 0.00 0.00 0.00 75 1016.0
20260507123028 53 148 2.0 6.0 0.00 0.00 0.00 72 1015.8
20260507122534 53 200 3.0 6.0 0.00 0.00 0.00 74 1015.7
20260507122028 53 188 3.0 6.0 0.00 0.00 0.00 72 1015.7
20260507121522 53 178 3.0 5.0 0.00 0.00 0.00 72 1015.6
20260507121030 53 59 0.0 4.0 0.00 0.00 0.00 71 1015.5
20260507120520 53 192 1.0 8.0 0.00 0.00 0.00 71 1015.5
20260507120050 53 173 3.0 8.0 0.00 0.00 0.00 71 1015.4
20260507115526 53 196 2.0 6.0 0.00 0.00 0.00 70 1015.4
20260507115034 53 351 0.0 6.0 0.00 0.00 0.00 71 1015.3
20260507114550 53 339 2.0 6.0 0.00 0.00 0.00 71 1015.4
20260507114020 53 153 1.0 5.0 0.00 0.00 0.00 70 1015.3
20260507113533 53 330 1.0 5.0 0.00 0.00 0.00 70 1015.3
20260507113027 53 32 1.0 6.0 0.00 0.00 0.00 69 1015.2
20260507112524 53 338 1.0 6.0 0.00 0.00 0.00 69 1015.2
20260507112030 54 180 3.0 6.0 0.00 0.00 0.00 68 1015.2
20260507111534 54 205 3.0 6.0 0.00 0.00 0.00 67 1015.3
20260507111039 54 355 1.0 8.0 0.00 0.00 0.00 69 1015.1
20260507110527 54 195 5.0 10.0 0.00 0.00 0.00 67 1015.0
20260507110025 54 190 4.0 10.0 0.00 0.00 0.00 67 1015.0
20260507105533 54 193 2.0 6.0 0.00 0.00 0.00 66 1014.9
20260507105023 54 34 2.0 6.0 0.00 0.00 0.00 65 1014.9
20260507104520 55 262 0.0 6.0 0.00 0.00 0.00 65 1014.9
20260507104031 55 10 3.0 6.0 0.00 0.00 0.00 64 1014.8
20260507103536 55 175 2.0 5.0 0.00 0.00 0.00 63 1014.9
20260507103037 55 176 1.0 7.0 0.00 0.00 0.00 62 1014.8
20260507102624 55 178 1.0 7.0 0.00 0.00 0.00 63 1014.7
20260507102038 55 23 2.0 7.0 0.00 0.00 0.00 61 1014.7
20260507101530 55 190 1.0 5.0 0.00 0.00 0.00 61 1014.5
20260507101023 55 181 2.0 8.0 0.00 0.00 0.00 61 1014.6
20260507100534 56 14 4.0 8.0 0.00 0.00 0.00 61 1014.6
20260507100033 56 192 2.0 6.0 0.00 0.00 0.00 60 1014.6
20260507095538 56 170 3.0 7.0 0.00 0.00 0.00 61 1014.6
20260507095028 56 181 1.0 5.0 0.00 0.00 0.00 61 1014.6
20260507094528 56 292 1.0 5.0 0.00 0.00 0.00 59 1014.5
20260507094038 57 54 1.0 5.0 0.00 0.00 0.00 58 1014.5
20260507093526 57 177 2.0 7.0 0.00 0.00 0.00 58 1014.4
20260507093025 57 171 2.0 7.0 0.00 0.00 0.00 58 1014.3
20260507092530 57 172 1.0 7.0 0.00 0.00 0.00 58 1014.4
20260507092020 57 179 4.0 7.0 0.00 0.00 0.00 56 1014.3
20260507091543 57 214 0.0 6.0 0.00 0.00 0.00 57 1014.3
20260507091026 57 190 1.0 10.0 0.00 0.00 0.00 59 1014.1
20260507090523 57 226 5.0 10.0 0.00 0.00 0.00 56 1014.0
20260507090038 57 175 2.0 8.0 0.00 0.00 0.00 57 1013.9
20260507085526 58 196 5.0 9.0 0.00 0.00 0.00 57 1013.9
20260507085035 58 204 4.0 10.0 0.00 0.00 0.00 57 1013.7
20260507084532 58 188 7.0 10.0 0.00 0.00 0.00 58 1013.7
20260507084020 58 204 4.0 9.0 0.00 0.00 0.00 59 1013.9
20260507083533 58 184 6.0 10.0 0.00 0.00 0.00 57 1013.7
20260507083032 58 185 3.0 8.0 0.00 0.00 0.00 55 1013.6
20260507082537 59 199 5.0 12.0 0.00 0.00 0.00 56 1013.5
20260507082027 59 221 7.0 12.0 0.00 0.00 0.00 57 1013.3
20260507081521 59 178 6.0 10.0 0.00 0.00 0.00 57 1013.3
20260507081031 59 195 6.0 11.0 0.00 0.00 0.00 56 1013.4
20260507080521 59 169 8.0 13.0 0.00 0.00 0.00 56 1013.3
20260507080043 59 154 8.0 13.0 0.00 0.00 0.00 56 1013.3
20260507075529 60 198 9.0 17.0 0.00 0.00 0.00 58 1013.2
20260507075024 60 211 11.0 17.0 0.00 0.00 0.00 57 1012.9
20260507074537 60 220 10.0 14.0 0.00 0.00 0.00 55 1013.0
20260507074024 60 207 6.0 10.0 0.00 0.00 0.00 56 1013.0
20260507073534 61 113 3.0 9.0 0.00 0.00 0.00 56 1012.9
20260507073028 61 360 1.0 7.0 0.00 0.00 0.00 56 1012.9
20260507072539 61 183 1.0 6.0 0.00 0.00 0.00 55 1013.0
20260507072029 61 35 2.0 6.0 0.00 0.00 0.00 54 1012.9
20260507071524 62 152 2.0 4.0 0.00 0.00 0.00 53 1012.9
20260507071038 62 178 1.0 6.0 0.00 0.00 0.00 53 1012.8
20260507070524 62 177 3.0 8.0 0.00 0.00 0.00 52 1012.8
20260507070037 62 228 5.0 8.0 0.00 0.00 0.00 53 1012.7
20260507065529 62 192 3.0 5.0 0.00 0.00 0.00 56 1012.7
20260507065022 62 153 2.0 4.0 0.00 0.00 0.00 55 1012.7
20260507064518 62 171 2.0 4.0 0.00 0.00 0.00 55 1012.8
20260507064029 62 95 0.0 4.0 0.00 0.00 0.00 58 1012.8
20260507063537 62 202 0.0 6.0 0.00 0.00 0.00 55 1012.7
20260507063036 62 238 3.0 6.0 0.00 0.00 0.00 55 1012.6
20260507062524 62 223 2.0 6.0 0.00 0.00 0.00 60 1012.6
20260507062034 62 262 1.0 4.0 0.00 0.00 0.00 58 1012.5
20260507061532 62 86 1.0 3.0 0.00 0.00 0.00 58 1012.5
20260507061019 62 141 0.0 3.0 0.00 0.00 0.00 57 1012.5
20260507060530 62 109 0.0 3.0 0.00 0.00 0.00 62 1012.5
20260507060026 63 190 1.0 6.0 0.00 0.00 0.00 61 1012.5
20260507055534 64 194 2.0 6.0 0.00 0.00 0.00 58 1012.6
20260507055025 64 149 1.0 4.0 0.00 0.00 0.00 58 1012.6
20260507054530 64 84 1.0 4.0 0.00 0.00 0.00 60 1012.6
20260507054030 63 190 1.0 4.0 0.00 0.00 0.00 60 1012.5
20260507053526 63 19 1.0 4.0 0.00 0.00 0.00 61 1012.6
20260507053024 63 30 1.0 3.0 0.00 0.00 0.00 62 1012.4
20260507052534 64 322 0.0 3.0 0.00 0.00 0.00 62 1012.3
20260507052021 64 36 1.0 4.0 0.00 0.00 0.00 62 1012.2
20260507051536 64 355 1.0 6.0 0.00 0.00 0.00 62 1012.1
20260507051030 65 192 3.0 6.0 0.00 0.00 0.00 58 1012.2
20260507050534 65 188 3.0 5.0 0.00 0.00 0.00 58 1012.2
20260507050032 64 207 3.0 7.0 0.00 0.00 0.00 61 1012.3
20260507045520 65 183 1.0 7.0 0.00 0.00 0.00 61 1012.3
20260507045027 65 250 3.0 8.0 0.00 0.00 0.00 61 1012.4
20260507044526 65 159 3.0 8.0 0.00 0.00 0.00 60 1012.4
20260507044035 66 163 2.0 7.0 0.00 0.00 0.00 59 1012.5
20260507043523 66 98 2.0 7.0 0.00 0.00 0.00 58 1012.4
20260507043024 66 355 1.0 4.0 0.00 0.00 0.00 58 1012.4
20260507042537 66 360 1.0 5.0 0.00 0.00 0.00 58 1012.5
20260507042024 66 90 2.0 5.0 0.00 0.00 0.00 57 1012.5
20260507041522 67 46 1.0 5.0 0.00 0.00 0.00 57 1012.6
20260507041033 67 123 1.0 7.0 0.00 0.00 0.00 57 1012.6
20260507040522 67 32 1.0 7.0 0.00 0.00 0.00 57 1012.5
20260507040017 67 324 1.0 7.0 0.00 0.00 0.00 56 1012.5
20260507035528 67 210 1.0 6.0 0.00 0.00 0.00 57 1012.3
20260507035037 67 146 3.0 7.0 0.00 0.00 0.00 57 1012.4
20260507034538 67 355 2.0 7.0 0.00 0.00 0.00 57 1012.2
20260507034023 67 350 2.0 8.0 0.00 0.00 0.00 57 1012.1
20260507033534 67 41 1.0 5.0 0.00 0.00 0.00 58 1012.1
20260507033032 67 192 1.0 4.0 0.00 0.00 0.00 59 1012.2
20260507032539 67 87 1.0 7.0 0.00 0.00 0.00 57 1012.2
20260507032033 68 241 1.0 9.0 0.00 0.00 0.00 56 1012.3
20260507031527 68 80 4.0 9.0 0.00 0.00 0.00 56 1012.3